Offutt Air Force Base, NE

6:05 AM CDT on September 30, 2016 (GMT -0500)
Offutt Air Force Base

Weather History for KOFF - May, 2014

Change the Weather History Date:

Monday, May 19, 2014

  Actual Average Record
Temperature  
Mean Temperature 70 °F -  
Max Temperature 81 °F 71 °F 91 °F (2006)
Min Temperature 60 °F 52 °F 39 °F (2002)
Cooling Degree Days 6    
Growing Degree Days 20 (Base 50)    
Moisture  
Dew Point 60 °F    
Average Humidity 72    
Maximum Humidity 94    
Minimum Humidity 52    
Precipitation  
Precipitation 0.00 in - - ()
Sea Level Pressure  
Sea Level Pressure 29.74 in    
Wind  
Wind Speed 15 mph (SE)    
Max Wind Speed 23 mph    
Max Gust Speed 32 mph    
Visibility 10 miles    
Events      
Averages and records for this station are not official NWS values.
T = Trace of Precipitation, MM = Missing Value Source: NWS Daily Summary

Daily Weather History Graph

Daily Weather History Graph

Search for Another Location

Airport or City:

Trip Planner

Search our weather history database for the weather conditions in past years. The results will help you decide how hot, cold, wet, or windy it might be!

Date:

Astronomy

May. 19, 2014 Rise Set
Actual Time 6:01 AM CDT 8:38 PM CDT
Civil Twilight 5:30 AM CDT 9:10 PM CDT
Nautical Twilight 4:50 AM CDT 9:50 PM CDT
Astronomical Twilight 4:05 AM CDT 10:35 PM CDT
Moon 12:26 AM CDT (5/19) 11:01 AM CDT (5/19)
Length of Visible Light 15h 40m
Length of Day
14h 37m
Waning Gibbous, 71% of the Moon is Illuminated
May 19
Waning Gibbous
May 21
Last Quarter
May 28
New
Jun 5
First Quarter
Jun 12
Full

Hourly Weather History & Observations

Time (CDT) Temp. Heat Index Dew Point Humidity Pressure Visibility Wind Dir Wind Speed Gust Speed Precip Events Conditions
12:58 AM 63.7 °F - 47.8 °F 56% 29.92 in 10.0 mi ESE 13.8 mph - N/A   Overcast
1:58 AM 63.1 °F - 49.3 °F 61% 29.90 in 10.0 mi SE 15.0 mph - N/A   Mostly Cloudy
2:58 AM 62.2 °F - 50.9 °F 66% 29.88 in 10.0 mi ESE 13.8 mph - N/A   Scattered Clouds
3:58 AM 61.0 °F - 51.8 °F 72% 29.86 in 10.0 mi SE 12.7 mph - N/A   Scattered Clouds
4:58 AM 60.3 °F - 53.2 °F 78% 29.85 in 10.0 mi SE 12.7 mph - N/A   Scattered Clouds
5:58 AM 60.4 °F - 56.8 °F 88% 29.83 in 10.0 mi SE 13.8 mph - N/A   Scattered Clouds
6:03 AM 60.8 °F - 57.2 °F 88% 29.83 in 10.0 mi SE 13.8 mph - N/A   Mostly Cloudy
6:58 AM 61.2 °F - 59.5 °F 94% 29.81 in 10.0 mi SE 13.8 mph - N/A   Mostly Cloudy
7:03 AM 60.8 °F - 59.0 °F 94% 29.81 in 10.0 mi SE 18.4 mph 24.2 mph N/A   Mostly Cloudy
7:13 AM 60.8 °F - 59.0 °F 94% 29.80 in 10.0 mi SE 18.4 mph 26.5 mph N/A   Mostly Cloudy
7:18 AM 62.6 °F - 59.0 °F 88% 29.80 in 10.0 mi SE 17.3 mph 26.5 mph N/A   Mostly Cloudy
9:38 AM 68.0 °F - 62.6 °F 83% 29.77 in 10.0 mi SSE 21.9 mph 31.1 mph N/A   Scattered Clouds
9:58 AM 69.1 °F - 62.4 °F 79% 29.75 in 10.0 mi SSE 20.7 mph 26.5 mph N/A   Partly Cloudy
10:53 AM 71.6 °F - 62.6 °F 73% 29.72 in 10.0 mi SSE 21.9 mph 27.6 mph N/A   Mostly Cloudy
10:58 AM 72.1 °F - 62.4 °F 71% 29.72 in 10.0 mi SSE 18.4 mph 31.1 mph N/A   Mostly Cloudy
11:08 AM 73.4 °F - 62.6 °F 69% 29.71 in 10.0 mi SSE 21.9 mph 29.9 mph N/A   Scattered Clouds
11:13 AM 73.4 °F - 62.6 °F 69% 29.71 in 10.0 mi SSE 18.4 mph 29.9 mph N/A   Mostly Cloudy
11:18 AM 73.4 °F - 62.6 °F 69% 29.71 in 10.0 mi SSE 23.0 mph 29.9 mph N/A   Scattered Clouds
11:58 AM 74.3 °F - 62.6 °F 67% 29.70 in 10.0 mi South 20.7 mph 32.2 mph N/A   Scattered Clouds
12:58 PM 75.4 °F - 63.1 °F 66% 29.68 in 10.0 mi SE 19.6 mph 25.3 mph N/A   Mostly Cloudy
1:58 PM 74.8 °F - 63.9 °F 69% 29.68 in 10.0 mi SE 12.7 mph - N/A   Mostly Cloudy
2:58 PM 78.1 °F - 63.3 °F 60% 29.65 in 10.0 mi South 15.0 mph 21.9 mph N/A   Mostly Cloudy
3:58 PM 79.3 °F - 63.7 °F 59% 29.64 in 10.0 mi South 17.3 mph 23.0 mph N/A   Mostly Cloudy
4:58 PM 81.5 °F 82.5 °F 62.4 °F 52% 29.62 in 10.0 mi South 16.1 mph 23.0 mph N/A   Mostly Cloudy
5:58 PM 80.6 °F 81.9 °F 63.3 °F 55% 29.62 in 10.0 mi SSE 16.1 mph - N/A   Mostly Cloudy
6:58 PM 81.0 °F 82.5 °F 64.0 °F 56% 29.64 in 10.0 mi SSE 10.4 mph - N/A   Mostly Cloudy
7:58 PM 78.3 °F - 64.2 °F 62% 29.65 in 10.0 mi SE 9.2 mph - N/A   Mostly Cloudy
8:58 PM 74.8 °F - 65.1 °F 72% 29.66 in 10.0 mi ESE 8.1 mph - N/A   Clear
9:58 PM 73.9 °F - 65.7 °F 75% 29.68 in 10.0 mi ESE 8.1 mph - N/A   Mostly Cloudy
10:58 PM 74.1 °F - 65.1 °F 73% 29.69 in 10.0 mi SE 11.5 mph - N/A   Scattered Clouds
11:58 PM 74.7 °F - 64.4 °F 70% 29.69 in 10.0 mi SE 11.5 mph - N/A   Scattered Clouds